Virginia Beach, VA

7:39 AM EST on December 11, 2016 (GMT -0500)
Oceana Naval Air Station

Weather History for KNTU - February, 2013

Change the Weather History Date:

Tuesday, February 26, 2013

  Actual Average Record
Temperature  
Mean Temperature 48 °F -  
Max Temperature 59 °F 52 °F 72 °F (2002)
Min Temperature 36 °F 35 °F 25 °F (2005)
Degree Days  
Heating Degree Days 18    
Moisture  
Dew Point 46 °F    
Average Humidity 86    
Maximum Humidity 94    
Minimum Humidity 73    
Precipitation  
Precipitation 1.19 in - - ()
Sea Level Pressure  
Sea Level Pressure 29.88 in    
Wind  
Wind Speed 12 mph (East)    
Max Wind Speed 30 mph    
Max Gust Speed 41 mph    
Visibility 6 miles    
Events Fog , Rain    
Averages and records for this station are not official NWS values.
T = Trace of Precipitation, MM = Missing Value Source: NWS Daily Summary

Daily Weather History Graph

Daily Weather History Graph

Search for Another Location

Airport or City:

Trip Planner

Search our weather history database for the weather conditions in past years. The results will help you decide how hot, cold, wet, or windy it might be!

Date:

Astronomy

Feb. 26, 2013 Rise Set
Actual Time 6:38 AM EST 5:55 PM EST
Civil Twilight 6:12 AM EST 6:21 PM EST
Nautical Twilight 5:42 AM EST 6:51 PM EST
Astronomical Twilight 5:12 AM EST 7:21 PM EST
Moon 7:06 PM EST (2/26) 6:42 AM EST (2/26)
Length of Visible Light 12h 09m
Length of Day
11h 17m
Full, 99% of the Moon is Illuminated
Feb 26
Full
Mar 4
Last Quarter
Mar 11
New
Mar 19
First Quarter
Mar 27
Full

Hourly Weather History & Observations

Time (EST) Temp. Windchill Dew Point Humidity Pressure Visibility Wind Dir Wind Speed Gust Speed Precip Events Conditions
12:56 AM 37.0 °F 33.3 °F 28.9 °F 73% 30.19 in 10.0 mi ENE 4.6 mph - N/A   Mostly Cloudy
1:56 AM 37.0 °F 31.6 °F 30.9 °F 79% 30.17 in 10.0 mi NE 6.9 mph - N/A   Overcast
2:56 AM 36.0 °F 29.6 °F 32.0 °F 86% 30.17 in 10.0 mi NNE 8.1 mph - N/A   Overcast
3:56 AM 39.0 °F 34.0 °F 34.0 °F 82% 30.15 in 10.0 mi NE 6.9 mph - N/A   Overcast
4:56 AM 39.9 °F 33.4 °F 35.1 °F 83% 30.14 in 10.0 mi NE 10.4 mph - N/A   Overcast
5:56 AM 41.0 °F 34.3 °F 37.0 °F 86% 30.15 in 10.0 mi NE 11.5 mph - N/A   Overcast
6:56 AM 42.1 °F 36.1 °F 37.9 °F 85% 30.12 in 10.0 mi NE 10.4 mph 19.6 mph N/A   Overcast
7:56 AM 44.1 °F 38.1 °F 39.9 °F 85% 30.12 in 10.0 mi ENE 11.5 mph - N/A   Overcast
8:56 AM 46.9 °F - 41.0 °F 80% 30.13 in 10.0 mi ENE 8.1 mph - N/A   Overcast
9:56 AM 50.0 °F - 42.1 °F 74% 30.11 in 10.0 mi East 11.5 mph - N/A   Overcast
10:56 AM 50.0 °F - 44.1 °F 80% 30.06 in 10.0 mi East 15.0 mph - 0.00 in Rain Light Rain
11:56 AM 51.1 °F - 46.0 °F 83% 30.03 in 10.0 mi East 15.0 mph 20.7 mph 0.01 in Rain Light Rain
12:56 PM 51.1 °F - 48.0 °F 89% 29.96 in 9.0 mi East 21.9 mph 27.6 mph 0.02 in Rain Light Rain
1:56 PM 51.1 °F - 48.0 °F 89% 29.94 in 5.0 mi ESE 16.1 mph - 0.05 in Rain Light Rain
2:56 PM 52.0 °F - 48.9 °F 89% 29.91 in 4.0 mi ESE 16.1 mph - 0.08 in Rain Light Rain
3:47 PM 51.8 °F - 48.2 °F 88% 29.87 in 2.5 mi ESE 13.8 mph - 0.11 in Rain Rain
3:56 PM 51.1 °F - 48.9 °F 92% 29.87 in 2.5 mi East 16.1 mph - 0.14 in Rain Rain
4:04 PM 51.8 °F - 48.2 °F 88% 29.85 in 1.5 mi ESE 16.1 mph - 0.03 in Rain Rain
4:17 PM 51.8 °F - 50.0 °F 94% 29.83 in 1.5 mi East 19.6 mph - 0.08 in Rain Rain
4:26 PM 51.8 °F - 50.0 °F 94% 29.82 in 1.5 mi ESE 18.4 mph - 0.10 in Rain Rain
4:50 PM 51.8 °F - 48.2 °F 88% 29.78 in 1.5 mi East 18.4 mph 28.8 mph 0.17 in Rain Rain
4:56 PM 51.1 °F - 48.9 °F 92% 29.78 in 1.5 mi East 18.4 mph 28.8 mph 0.19 in Rain Rain
5:56 PM 52.0 °F - 48.0 °F 86% 29.72 in 0.5 mi ESE 19.6 mph 36.8 mph 0.20 in Fog , Rain Rain
6:56 PM 55.0 °F - 52.0 °F 89% 29.68 in 0.5 mi ESE 29.9 mph 36.8 mph 0.22 in Fog , Rain Rain
7:10 PM 55.4 °F - 51.8 °F 88% 29.66 in 2.0 mi ESE 21.9 mph 41.4 mph 0.03 in Rain Light Rain
7:49 PM 55.4 °F - 53.6 °F 94% 29.61 in 1.0 mi SE 21.9 mph 28.8 mph 0.19 in Rain Heavy Rain
7:56 PM 55.9 °F - 53.6 °F 92% 29.62 in 1.5 mi SE 24.2 mph 34.5 mph 0.20 in Rain Light Rain
8:20 PM 57.2 °F - 53.6 °F 88% 29.61 in 4.0 mi SSE 18.4 mph 31.1 mph 0.05 in Rain Light Rain
8:56 PM 59.0 °F - 55.0 °F 87% 29.62 in 7.0 mi South 10.4 mph 26.5 mph 0.08 in Rain Light Rain
9:13 PM 59.0 °F - 53.6 °F 82% 29.60 in 10.0 mi South 9.2 mph 19.6 mph 0.00 in   Overcast
9:56 PM 59.0 °F - 55.0 °F 87% 29.59 in 10.0 mi SSE 4.6 mph - 0.00 in   Overcast
10:56 PM 57.0 °F - 52.0 °F 83% 29.56 in 10.0 mi ESE 5.8 mph - N/A   Overcast
11:56 PM 59.0 °F - 57.0 °F 93% 29.56 in 3.0 mi SSW 5.8 mph - N/A Fog Overcast